Time,TemperatureF,DewpointF,PressureIn,WindDirection,WindDirectionDegrees,WindSpeedMPH,WindSpeedGustMPH,Humidity,HourlyPrecipIn,Conditions,Clouds,dailyrainin,SoftwareType,DateUTC
2013-01-31 00:01:00,38.9,20.3,29.65,ESE,113,1.1,1.6,47,0.00,,,0.00,WUHU216HW,2013-01-31 06:01:00,
2013-01-31 00:06:00,38.9,20.8,29.65,SE,135,1.1,1.6,48,0.00,,,0.00,WUHU216HW,2013-01-31 06:06:00,
2013-01-31 00:11:00,38.7,20.6,29.64,NE,45,1.8,2.5,48,0.00,,,0.00,WUHU216HW,2013-01-31 06:11:00,
2013-01-31 00:16:00,38.2,20.2,29.64,ENE,68,0.4,2.5,48,0.00,,,0.00,WUHU216HW,2013-01-31 06:16:00,
2013-01-31 00:21:00,38.0,20.5,29.64,ENE,68,1.1,1.1,49,0.00,,,0.00,WUHU216HW,2013-01-31 06:21:00,
2013-01-31 00:26:00,37.8,20.4,29.63,ENE,68,1.1,1.1,49,0.00,,,0.00,WUHU216HW,2013-01-31 06:26:00,
2013-01-31 00:31:00,37.8,20.9,29.62,ENE,68,0.9,1.1,50,0.00,,,0.00,WUHU216HW,2013-01-31 06:31:00,
2013-01-31 00:36:00,37.6,20.7,29.62,SE,135,1.1,1.1,50,0.00,,,0.00,WUHU216HW,2013-01-31 06:36:00,
2013-01-31 00:41:00,37.3,20.8,29.62,SE,135,2.0,2.0,51,0.00,,,0.00,WUHU216HW,2013-01-31 06:41:00,
2013-01-31 00:46:00,37.1,20.6,29.62,SE,135,2.2,2.2,51,0.00,,,0.00,WUHU216HW,2013-01-31 06:46:00,
2013-01-31 00:51:00,36.7,20.4,29.62,East,90,0.7,2.2,51,0.00,,,0.00,WUHU216HW,2013-01-31 06:51:00,
2013-01-31 00:56:00,36.5,20.2,29.61,SE,135,1.1,1.8,51,0.00,,,0.00,WUHU216HW,2013-01-31 06:56:00,
2013-01-31 01:01:00,36.5,20.2,29.62,ESE,113,1.8,2.2,51,0.00,,,0.00,WUHU216HW,2013-01-31 07:01:00,
2013-01-31 01:06:00,36.5,20.6,29.62,East,90,0.9,2.9,52,0.00,,,0.00,WUHU216HW,2013-01-31 07:06:00,
2013-01-31 01:20:00,36.4,20.4,29.62,ESE,113,1.3,2.0,52,0.00,,,0.00,WUHU216HW,2013-01-31 07:20:00,
2013-01-31 01:25:00,36.2,20.3,29.63,NE,45,1.1,2.0,52,0.00,,,0.00,WUHU216HW,2013-01-31 07:25:00,
2013-01-31 01:30:00,36.2,20.3,29.63,SE,135,0.4,1.6,52,0.00,,,0.00,WUHU216HW,2013-01-31 07:30:00,
2013-01-31 01:35:00,36.2,19.8,29.63,ESE,113,0.0,1.1,51,0.00,,,0.00,WUHU216HW,2013-01-31 07:35:00,
2013-01-31 01:41:00,36.4,20.4,29.63,ENE,68,0.9,0.9,52,0.00,,,0.00,WUHU216HW,2013-01-31 07:41:00,
2013-01-31 01:46:00,36.4,20.4,29.62,ESE,113,0.0,0.9,52,0.00,,,0.00,WUHU216HW,2013-01-31 07:46:00,
2013-01-31 01:51:00,36.2,20.3,29.62,NE,45,0.7,0.7,52,0.00,,,0.00,WUHU216HW,2013-01-31 07:51:00,
2013-01-31 01:56:00,36.0,20.1,29.63,ENE,68,0.7,0.9,52,0.00,,,0.00,WUHU216HW,2013-01-31 07:56:00,
2013-01-31 02:01:00,35.6,19.8,29.62,ENE,68,1.1,1.1,52,0.00,,,0.00,WUHU216HW,2013-01-31 08:01:00,
2013-01-31 02:06:00,35.5,20.0,29.62,ESE,113,0.2,1.1,53,0.00,,,0.00,WUHU216HW,2013-01-31 08:06:00,
2013-01-31 02:11:00,35.3,20.3,29.62,ENE,68,0.9,1.1,54,0.00,,,0.00,WUHU216HW,2013-01-31 08:11:00,
2013-01-31 02:16:00,35.3,19.8,29.62,ENE,68,0.4,0.9,53,0.00,,,0.00,WUHU216HW,2013-01-31 08:16:00,
2013-01-31 02:21:00,35.3,20.3,29.62,ENE,68,0.4,0.9,54,0.00,,,0.00,WUHU216HW,2013-01-31 08:21:00,
2013-01-31 02:26:00,35.3,20.3,29.62,East,90,0.4,0.9,54,0.00,,,0.00,WUHU216HW,2013-01-31 08:26:00,
2013-01-31 02:31:00,35.3,20.3,29.62,ESE,113,0.7,0.7,54,0.00,,,0.00,WUHU216HW,2013-01-31 08:31:00,
2013-01-31 02:36:00,35.3,20.3,29.62,ESE,113,0.4,1.1,54,0.00,,,0.00,WUHU216HW,2013-01-31 08:36:00,
2013-01-31 02:41:00,35.1,20.1,29.62,SE,135,0.9,1.1,54,0.00,,,0.00,WUHU216HW,2013-01-31 08:41:00,
2013-01-31 02:46:00,35.1,20.5,29.62,SE,135,1.6,1.6,55,0.00,,,0.00,WUHU216HW,2013-01-31 08:46:00,
2013-01-31 02:51:00,35.1,20.5,29.61,ESE,113,0.4,1.6,55,0.00,,,0.00,WUHU216HW,2013-01-31 08:51:00,
2013-01-31 02:56:00,34.9,20.3,29.62,ESE,113,0.9,1.1,55,0.00,,,0.00,WUHU216HW,2013-01-31 08:56:00,
2013-01-31 03:01:00,34.9,20.3,29.62,ENE,68,0.4,0.9,55,0.00,,,0.00,WUHU216HW,2013-01-31 09:01:00,
2013-01-31 03:06:00,34.7,20.2,29.63,East,90,0.0,0.9,55,0.00,,,0.00,WUHU216HW,2013-01-31 09:06:00,
2013-01-31 03:11:00,34.6,20.0,29.63,ENE,68,0.0,0.4,55,0.00,,,0.00,WUHU216HW,2013-01-31 09:11:00,
2013-01-31 03:16:00,34.6,20.4,29.62,ESE,113,0.7,0.7,56,0.00,,,0.00,WUHU216HW,2013-01-31 09:16:00,
2013-01-31 03:21:00,34.7,20.6,29.63,ESE,113,0.4,1.1,56,0.00,,,0.00,WUHU216HW,2013-01-31 09:21:00,
2013-01-31 03:26:00,34.6,20.9,29.62,ESE,113,0.7,1.6,57,0.00,,,0.00,WUHU216HW,2013-01-31 09:26:00,
2013-01-31 03:31:00,34.6,20.4,29.62,ESE,113,0.2,1.6,56,0.00,,,0.00,WUHU216HW,2013-01-31 09:31:00,
2013-01-31 03:36:00,34.6,20.9,29.62,SE,135,1.1,1.3,57,0.00,,,0.00,WUHU216HW,2013-01-31 09:36:00,
2013-01-31 03:42:00,34.4,20.7,29.62,SE,135,0.4,1.3,57,0.00,,,0.00,WUHU216HW,2013-01-31 09:42:00,
2013-01-31 03:47:00,34.6,20.9,29.63,East,90,0.0,1.3,57,0.00,,,0.00,WUHU216HW,2013-01-31 09:47:00,
2013-01-31 03:52:00,34.4,20.7,29.63,ENE,68,1.1,2.0,57,0.00,,,0.00,WUHU216HW,2013-01-31 09:52:00,
2013-01-31 03:57:00,34.6,20.9,29.63,ESE,113,1.3,2.0,57,0.00,,,0.00,WUHU216HW,2013-01-31 09:57:00,
2013-01-31 04:02:00,34.6,20.9,29.63,ESE,113,1.1,1.6,57,0.00,,,0.00,WUHU216HW,2013-01-31 10:02:00,
2013-01-31 04:07:00,34.6,20.4,29.63,ESE,113,0.2,1.3,56,0.00,,,0.00,WUHU216HW,2013-01-31 10:07:00,
2013-01-31 04:12:00,34.6,20.4,29.63,East,90,0.4,1.1,56,0.00,,,0.00,WUHU216HW,2013-01-31 10:12:00,
2013-01-31 04:17:00,34.2,20.1,29.63,SE,135,0.9,0.9,56,0.00,,,0.00,WUHU216HW,2013-01-31 10:17:00,
2013-01-31 04:22:00,34.2,20.5,29.63,SE,135,1.1,1.6,57,0.00,,,0.00,WUHU216HW,2013-01-31 10:22:00,
2013-01-31 04:28:00,34.2,20.5,29.64,ESE,113,0.4,1.8,57,0.00,,,0.00,WUHU216HW,2013-01-31 10:28:00,
2013-01-31 04:33:00,34.2,20.5,29.63,SE,135,0.7,1.8,57,0.00,,,0.00,WUHU216HW,2013-01-31 10:33:00,
2013-01-31 04:38:00,34.2,20.5,29.63,SSW,203,0.0,0.7,57,0.00,,,0.00,WUHU216HW,2013-01-31 10:38:00,
2013-01-31 04:43:00,34.2,20.9,29.63,WSW,248,0.9,0.9,58,0.00,,,0.00,WUHU216HW,2013-01-31 10:43:00,
2013-01-31 04:48:00,34.4,20.7,29.63,West,270,0.0,0.9,57,0.00,,,0.00,WUHU216HW,2013-01-31 10:48:00,
2013-01-31 04:53:00,34.4,21.1,29.64,West,270,0.4,0.7,58,0.00,,,0.00,WUHU216HW,2013-01-31 10:53:00,
2013-01-31 04:58:00,34.6,21.2,29.63,WSW,248,1.3,3.4,58,0.00,,,0.00,WUHU216HW,2013-01-31 10:58:00,
2013-01-31 05:03:00,34.6,21.2,29.63,SW,225,1.1,3.4,58,0.00,,,0.00,WUHU216HW,2013-01-31 11:03:00,
2013-01-31 05:08:00,34.6,21.2,29.63,SE,135,0.0,1.3,58,0.00,,,0.00,WUHU216HW,2013-01-31 11:08:00,
2013-01-31 05:13:00,34.4,21.1,29.63,SE,135,0.0,0.7,58,0.00,,,0.00,WUHU216HW,2013-01-31 11:13:00,
2013-01-31 05:18:00,34.2,20.9,29.64,West,270,0.0,0.0,58,0.00,,,0.00,WUHU216HW,2013-01-31 11:18:00,
2013-01-31 05:23:00,34.2,20.9,29.64,WSW,248,0.4,0.9,58,0.00,,,0.00,WUHU216HW,2013-01-31 11:23:00,
2013-01-31 05:28:00,34.2,20.9,29.64,SW,225,0.0,0.9,58,0.00,,,0.00,WUHU216HW,2013-01-31 11:28:00,
2013-01-31 05:34:00,34.4,20.7,29.63,SW,225,0.0,0.4,57,0.00,,,0.00,WUHU216HW,2013-01-31 11:34:00,
2013-01-31 05:39:00,34.6,20.9,29.63,SW,225,0.9,1.6,57,0.00,,,0.00,WUHU216HW,2013-01-31 11:39:00,
2013-01-31 05:44:00,34.9,20.8,29.63,WSW,248,2.2,2.5,56,0.00,,,0.00,WUHU216HW,2013-01-31 11:44:00,
2013-01-31 05:49:00,35.3,21.6,29.63,WSW,248,2.0,2.5,57,0.00,,,0.00,WUHU216HW,2013-01-31 11:49:00,
2013-01-31 05:54:00,35.6,21.5,29.64,WSW,248,1.8,2.5,56,0.00,,,0.00,WUHU216HW,2013-01-31 11:54:00,
2013-01-31 05:59:00,35.5,21.8,29.64,WSW,248,1.1,1.8,57,0.00,,,0.00,WUHU216HW,2013-01-31 11:59:00,
2013-01-31 06:04:00,35.3,21.6,29.65,North,0,0.0,1.8,57,0.00,,,0.00,WUHU216HW,2013-01-31 12:04:00,
2013-01-31 06:09:00,34.9,21.3,29.65,NW,315,0.2,1.1,57,0.00,,,0.00,WUHU216HW,2013-01-31 12:09:00,
2013-01-31 06:14:00,34.7,20.6,29.65,WSW,248,0.0,0.4,56,0.00,,,0.00,WUHU216HW,2013-01-31 12:14:00,
2013-01-31 06:19:00,34.7,21.1,29.65,West,270,0.0,0.4,57,0.00,,,0.00,WUHU216HW,2013-01-31 12:19:00,
2013-01-31 06:24:00,34.7,21.1,29.66,SW,225,0.0,0.4,57,0.00,,,0.00,WUHU216HW,2013-01-31 12:24:00,
2013-01-31 06:29:00,34.9,20.8,29.65,SW,225,1.6,1.6,56,0.00,,,0.00,WUHU216HW,2013-01-31 12:29:00,
2013-01-31 06:34:00,35.1,21.4,29.65,SW,225,1.6,2.5,57,0.00,,,0.00,WUHU216HW,2013-01-31 12:34:00,
2013-01-31 06:39:00,35.6,21.5,29.65,WSW,248,1.6,2.7,56,0.00,,,0.00,WUHU216HW,2013-01-31 12:39:00,
2013-01-31 06:44:00,35.8,21.7,29.66,WSW,248,2.5,2.7,56,0.00,,,0.00,WUHU216HW,2013-01-31 12:44:00,
2013-01-31 06:49:00,36.0,21.4,29.66,SW,225,1.8,2.9,55,0.00,,,0.00,WUHU216HW,2013-01-31 12:49:00,
2013-01-31 06:54:00,36.4,21.2,29.66,WSW,248,2.5,2.9,54,0.00,,,0.00,WUHU216HW,2013-01-31 12:54:00,
2013-01-31 06:59:00,36.7,21.2,29.66,WSW,248,2.5,3.1,53,0.00,,,0.00,WUHU216HW,2013-01-31 12:59:00,
2013-01-31 07:04:00,37.1,21.5,29.66,SW,225,2.2,3.1,53,0.00,,,0.00,WUHU216HW,2013-01-31 13:04:00,
2013-01-31 07:09:00,37.3,21.3,29.66,SW,225,1.3,2.2,52,0.00,,,0.00,WUHU216HW,2013-01-31 13:09:00,
2013-01-31 07:14:00,37.6,21.5,29.66,SW,225,1.8,2.2,52,0.00,,,0.00,WUHU216HW,2013-01-31 13:14:00,
2013-01-31 07:19:00,37.8,21.2,29.66,SW,225,2.2,2.9,51,0.00,,,0.00,WUHU216HW,2013-01-31 13:19:00,
2013-01-31 07:24:00,37.8,21.2,29.66,SW,225,2.0,2.9,51,0.00,,,0.00,WUHU216HW,2013-01-31 13:24:00,
2013-01-31 07:30:00,38.0,21.4,29.66,SW,225,2.0,2.5,51,0.00,,,0.00,WUHU216HW,2013-01-31 13:30:00,
2013-01-31 07:35:00,38.2,21.6,29.67,SSW,203,1.1,2.5,51,0.00,,,0.00,WUHU216HW,2013-01-31 13:35:00,
2013-01-31 07:40:00,38.2,21.2,29.67,SW,225,2.0,2.5,50,0.00,,,0.00,WUHU216HW,2013-01-31 13:40:00,
2013-01-31 07:45:00,38.3,21.3,29.67,SW,225,2.9,2.9,50,0.00,,,0.00,WUHU216HW,2013-01-31 13:45:00,
2013-01-31 07:50:00,38.2,21.2,29.67,SW,225,3.4,3.6,50,0.00,,,0.00,WUHU216HW,2013-01-31 13:50:00,
2013-01-31 07:55:00,38.5,21.5,29.67,WSW,248,2.2,3.6,50,0.00,,,0.00,WUHU216HW,2013-01-31 13:55:00,
2013-01-31 08:00:00,38.9,21.8,29.68,SSW,203,2.5,3.6,50,0.00,,,0.00,WUHU216HW,2013-01-31 14:00:00,
2013-01-31 08:05:00,39.1,22.0,29.68,WSW,248,2.7,2.7,50,0.00,,,0.00,WUHU216HW,2013-01-31 14:05:00,
2013-01-31 08:10:00,39.2,21.6,29.68,SW,225,2.5,2.7,49,0.00,,,0.00,WUHU216HW,2013-01-31 14:10:00,
2013-01-31 08:15:00,39.2,21.6,29.68,SW,225,2.2,2.5,49,0.00,,,0.00,WUHU216HW,2013-01-31 14:15:00,
2013-01-31 08:20:00,39.6,22.0,29.68,SW,225,2.0,2.7,49,0.00,,,0.00,WUHU216HW,2013-01-31 14:20:00,
2013-01-31 08:25:00,40.0,22.2,29.68,SW,225,1.6,2.7,49,0.00,,,0.00,WUHU216HW,2013-01-31 14:25:00,
2013-01-31 08:30:00,40.1,22.4,29.68,WSW,248,1.8,2.2,49,0.00,,,0.00,WUHU216HW,2013-01-31 14:30:00,
2013-01-31 08:35:00,40.7,23.0,29.69,WSW,248,2.0,2.7,49,0.00,,,0.00,WUHU216HW,2013-01-31 14:35:00,
2013-01-31 08:40:00,41.2,23.4,29.69,SW,225,1.8,3.1,49,0.00,,,0.00,WUHU216HW,2013-01-31 14:40:00,
2013-01-31 08:45:00,41.6,23.8,29.70,WSW,248,2.7,3.1,49,0.00,,,0.00,WUHU216HW,2013-01-31 14:45:00,
2013-01-31 08:50:00,41.9,24.1,29.70,SSW,203,1.8,3.8,49,0.00,,,0.00,WUHU216HW,2013-01-31 14:50:00,
2013-01-31 08:55:00,42.1,24.3,29.70,WSW,248,2.5,3.8,49,0.00,,,0.00,WUHU216HW,2013-01-31 14:55:00,
2013-01-31 09:00:00,42.5,24.1,29.70,SW,225,2.0,4.7,48,0.00,,,0.00,WUHU216HW,2013-01-31 15:00:00,
2013-01-31 09:05:00,43.0,24.7,29.70,WSW,248,1.6,4.9,48,0.00,,,0.00,WUHU216HW,2013-01-31 15:05:00,
2013-01-31 09:10:00,43.6,25.1,29.70,WSW,248,4.7,4.9,48,0.00,,,0.00,WUHU216HW,2013-01-31 15:10:00,
2013-01-31 09:15:00,44.1,25.1,29.70,South,180,2.7,4.7,47,0.00,,,0.00,WUHU216HW,2013-01-31 15:15:00,
2013-01-31 09:20:00,44.6,25.6,29.70,WSW,248,1.8,4.3,47,0.00,,,0.00,WUHU216HW,2013-01-31 15:20:00,
2013-01-31 09:25:00,45.4,26.2,29.70,SSW,203,2.5,4.3,47,0.00,,,0.00,WUHU216HW,2013-01-31 15:25:00,
2013-01-31 09:31:00,45.9,26.2,29.70,WSW,248,6.3,6.3,46,0.00,,,0.00,WUHU216HW,2013-01-31 15:31:00,
2013-01-31 09:36:00,46.8,23.8,29.70,WSW,248,2.5,7.6,40,0.00,,,0.00,WUHU216HW,2013-01-31 15:36:00,
2013-01-31 09:41:00,47.9,24.7,29.70,SW,225,2.9,7.6,40,0.00,,,0.00,WUHU216HW,2013-01-31 15:41:00,
2013-01-31 09:46:00,48.6,24.0,29.70,WSW,248,5.6,7.2,38,0.00,,,0.00,WUHU216HW,2013-01-31 15:46:00,
2013-01-31 09:51:00,49.1,24.5,29.70,WSW,248,6.3,7.4,38,0.00,,,0.00,WUHU216HW,2013-01-31 15:51:00,
2013-01-31 09:56:00,49.9,23.0,29.70,SW,225,5.8,7.4,35,0.00,,,0.00,WUHU216HW,2013-01-31 15:56:00,
2013-01-31 10:01:00,50.4,24.9,29.70,WSW,248,4.3,6.7,37,0.00,,,0.00,WUHU216HW,2013-01-31 16:01:00,
2013-01-31 10:06:00,50.8,23.2,29.71,SSW,203,6.9,8.9,34,0.00,,,0.00,WUHU216HW,2013-01-31 16:06:00,
2013-01-31 10:11:00,51.7,24.0,29.71,WNW,293,7.6,8.9,34,0.00,,,0.00,WUHU216HW,2013-01-31 16:11:00,
2013-01-31 10:16:00,52.0,23.0,29.71,WSW,248,3.1,8.3,32,0.00,,,0.00,WUHU216HW,2013-01-31 16:16:00,
2013-01-31 10:21:00,52.2,23.1,29.71,WSW,248,3.1,7.6,32,0.00,,,0.00,WUHU216HW,2013-01-31 16:21:00,
2013-01-31 10:26:00,52.4,23.9,29.71,WSW,248,6.3,7.4,33,0.00,,,0.00,WUHU216HW,2013-01-31 16:26:00,
2013-01-31 10:31:00,52.6,24.1,29.71,WSW,248,4.7,6.3,33,0.00,,,0.00,WUHU216HW,2013-01-31 16:31:00,
2013-01-31 10:36:00,52.6,23.4,29.72,SW,225,4.9,7.4,32,0.00,,,0.00,WUHU216HW,2013-01-31 16:36:00,
2013-01-31 10:41:00,53.1,23.2,29.72,WSW,248,5.1,8.9,31,0.00,,,0.00,WUHU216HW,2013-01-31 16:41:00,
2013-01-31 10:46:00,53.8,24.6,29.72,South,180,4.3,8.9,32,0.00,,,0.00,WUHU216HW,2013-01-31 16:46:00,
2013-01-31 10:51:00,54.4,24.3,29.72,WSW,248,5.6,9.6,31,0.00,,,0.00,WUHU216HW,2013-01-31 16:51:00,
2013-01-31 10:56:00,55.1,21.3,29.72,West,270,6.5,9.6,27,0.00,,,0.00,WUHU216HW,2013-01-31 16:56:00,
2013-01-31 11:01:00,55.6,22.8,29.72,West,270,4.7,8.5,28,0.00,,,0.00,WUHU216HW,2013-01-31 17:01:00,
2013-01-31 11:06:00,56.0,24.0,29.72,SW,225,8.7,9.6,29,0.00,,,0.00,WUHU216HW,2013-01-31 17:06:00,
2013-01-31 11:11:00,56.5,24.5,29.72,WSW,248,4.3,9.6,29,0.00,,,0.00,WUHU216HW,2013-01-31 17:11:00,
2013-01-31 11:16:00,57.2,25.1,29.72,SSE,158,9.2,9.2,29,0.00,,,0.00,WUHU216HW,2013-01-31 17:16:00,
2013-01-31 11:21:00,58.0,24.9,29.71,SW,225,6.5,9.2,28,0.00,,,0.00,WUHU216HW,2013-01-31 17:21:00,
2013-01-31 11:26:00,58.1,25.0,29.71,WSW,248,8.7,13.9,28,0.00,,,0.00,WUHU216HW,2013-01-31 17:26:00,
2013-01-31 11:31:00,58.3,24.2,29.71,SSW,203,4.5,13.9,27,0.00,,,0.00,WUHU216HW,2013-01-31 17:31:00,
2013-01-31 11:36:00,58.1,24.0,29.71,South,180,12.3,12.3,27,0.00,,,0.00,WUHU216HW,2013-01-31 17:36:00,
2013-01-31 11:41:00,58.1,22.1,29.71,WSW,248,6.9,12.3,25,0.00,,,0.00,WUHU216HW,2013-01-31 17:41:00,
2013-01-31 11:46:00,58.5,22.4,29.71,WNW,293,6.0,8.9,25,0.00,,,0.00,WUHU216HW,2013-01-31 17:46:00,
2013-01-31 11:52:00,59.0,20.9,29.70,West,270,7.6,8.9,23,0.00,,,0.00,WUHU216HW,2013-01-31 17:52:00,
2013-01-31 11:57:00,59.4,23.1,29.70,SW,225,7.8,9.6,25,0.00,,,0.00,WUHU216HW,2013-01-31 17:57:00,
2013-01-31 12:02:00,60.1,23.8,29.70,SW,225,8.1,9.6,25,0.00,,,0.00,WUHU216HW,2013-01-31 18:02:00,
2013-01-31 12:07:00,60.5,24.1,29.70,WSW,248,6.3,8.7,25,0.00,,,0.00,WUHU216HW,2013-01-31 18:07:00,
2013-01-31 12:12:00,60.5,24.1,29.70,WSW,248,4.9,8.3,25,0.00,,,0.00,WUHU216HW,2013-01-31 18:12:00,
2013-01-31 12:17:00,60.3,24.0,29.70,WSW,248,6.5,11.0,25,0.00,,,0.00,WUHU216HW,2013-01-31 18:17:00,
2013-01-31 12:22:00,60.1,23.8,29.70,WNW,293,1.8,11.0,25,0.00,,,0.00,WUHU216HW,2013-01-31 18:22:00,
2013-01-31 12:27:00,60.3,23.0,29.69,SW,225,8.5,8.5,24,0.00,,,0.00,WUHU216HW,2013-01-31 18:27:00,
2013-01-31 12:32:00,60.1,22.9,29.69,WSW,248,4.0,9.2,24,0.00,,,0.00,WUHU216HW,2013-01-31 18:32:00,
2013-01-31 12:37:00,60.1,20.9,29.69,WNW,293,3.4,9.2,22,0.00,,,0.00,WUHU216HW,2013-01-31 18:37:00,
2013-01-31 12:42:00,60.7,23.3,29.69,SW,225,7.8,8.9,24,0.00,,,0.00,WUHU216HW,2013-01-31 18:42:00,
2013-01-31 12:47:00,60.8,23.4,29.68,SW,225,4.9,9.2,24,0.00,,,0.00,WUHU216HW,2013-01-31 18:47:00,
2013-01-31 12:52:00,61.0,21.7,29.68,WNW,293,6.3,10.3,22,0.00,,,0.00,WUHU216HW,2013-01-31 18:52:00,
2013-01-31 12:57:00,61.2,22.8,29.68,SSW,203,3.4,10.3,23,0.00,,,0.00,WUHU216HW,2013-01-31 18:57:00,
2013-01-31 13:02:00,61.6,22.2,29.67,SSW,203,5.1,9.6,22,0.00,,,0.00,WUHU216HW,2013-01-31 19:02:00,
2013-01-31 13:07:00,61.9,22.4,29.67,SW,225,4.7,9.6,22,0.00,,,0.00,WUHU216HW,2013-01-31 19:07:00,
2013-01-31 13:12:00,62.3,23.7,29.67,East,90,0.4,8.9,23,0.00,,,0.00,WUHU216HW,2013-01-31 19:12:00,
2013-01-31 13:17:00,62.3,23.7,29.67,SW,225,7.6,8.9,23,0.00,,,0.00,WUHU216HW,2013-01-31 19:17:00,
2013-01-31 13:22:00,62.5,22.9,29.66,SW,225,4.0,9.8,22,0.00,,,0.00,WUHU216HW,2013-01-31 19:22:00,
2013-01-31 13:27:00,62.8,22.1,29.65,WSW,248,9.4,9.8,21,0.00,,,0.00,WUHU216HW,2013-01-31 19:27:00,
2013-01-31 13:32:00,63.0,24.3,29.65,WNW,293,7.6,9.4,23,0.00,,,0.00,WUHU216HW,2013-01-31 19:32:00,
2013-01-31 13:37:00,63.0,22.3,29.64,WSW,248,7.6,10.5,21,0.00,,,0.00,WUHU216HW,2013-01-31 19:37:00,
2013-01-31 13:42:00,63.2,23.5,29.63,SW,225,10.1,10.5,22,0.00,,,0.00,WUHU216HW,2013-01-31 19:42:00,
2013-01-31 13:47:00,63.2,23.5,29.63,WSW,248,4.7,10.1,22,0.00,,,0.00,WUHU216HW,2013-01-31 19:47:00,
2013-01-31 13:52:00,63.4,23.6,29.63,WSW,248,4.3,9.2,22,0.00,,,0.00,WUHU216HW,2013-01-31 19:52:00,
2013-01-31 13:57:00,63.7,24.8,29.63,South,180,10.1,10.1,23,0.00,,,0.00,WUHU216HW,2013-01-31 19:57:00,
2013-01-31 14:02:00,63.7,23.9,29.63,SW,225,9.6,10.1,22,0.00,,,0.00,WUHU216HW,2013-01-31 20:02:00,
2013-01-31 14:08:00,63.9,24.0,29.62,NW,315,6.0,9.6,22,0.00,,,0.00,WUHU216HW,2013-01-31 20:08:00,
2013-01-31 14:13:00,64.1,24.2,29.61,WSW,248,6.5,9.2,22,0.00,,,0.00,WUHU216HW,2013-01-31 20:13:00,
2013-01-31 14:18:00,64.4,24.5,29.61,SSW,203,6.7,8.5,22,0.00,,,0.00,WUHU216HW,2013-01-31 20:18:00,
2013-01-31 14:23:00,64.4,23.5,29.61,SW,225,3.4,8.3,21,0.00,,,0.00,WUHU216HW,2013-01-31 20:23:00,
2013-01-31 14:28:00,64.8,23.8,29.61,South,180,9.8,9.8,21,0.00,,,0.00,WUHU216HW,2013-01-31 20:28:00,
2013-01-31 14:33:00,65.0,24.9,29.61,SW,225,2.7,9.8,22,0.00,,,0.00,WUHU216HW,2013-01-31 20:33:00,
2013-01-31 14:38:00,65.0,24.9,29.60,SW,225,12.1,12.1,22,0.00,,,0.00,WUHU216HW,2013-01-31 20:38:00,
2013-01-31 14:43:00,65.0,21.3,29.61,WSW,248,6.9,12.1,19,0.00,,,0.00,WUHU216HW,2013-01-31 20:43:00,
2013-01-31 14:48:00,65.2,24.0,29.62,WSW,248,4.9,11.2,21,0.00,,,0.00,WUHU216HW,2013-01-31 20:48:00,
2013-01-31 14:53:00,65.0,24.0,29.61,SW,225,7.8,11.0,21,0.00,,,0.00,WUHU216HW,2013-01-31 20:53:00,
2013-01-31 14:58:00,65.2,24.0,29.61,SW,225,6.9,8.9,21,0.00,,,0.00,WUHU216HW,2013-01-31 20:58:00,
2013-01-31 15:03:00,65.2,24.0,29.61,SSW,203,7.6,8.5,21,0.00,,,0.00,WUHU216HW,2013-01-31 21:03:00,
2013-01-31 15:08:00,65.2,21.5,29.61,WSW,248,6.5,11.4,19,0.00,,,0.00,WUHU216HW,2013-01-31 21:08:00,
2013-01-31 15:13:00,65.3,24.2,29.60,South,180,6.3,11.4,21,0.00,,,0.00,WUHU216HW,2013-01-31 21:13:00,
2013-01-31 15:18:00,65.5,24.4,29.60,SSE,158,6.3,7.6,21,0.00,,,0.00,WUHU216HW,2013-01-31 21:18:00,
2013-01-31 15:23:00,65.7,23.5,29.60,WSW,248,9.4,9.4,20,0.00,,,0.00,WUHU216HW,2013-01-31 21:23:00,
2013-01-31 15:28:00,65.7,24.5,29.60,West,270,3.4,9.4,21,0.00,,,0.00,WUHU216HW,2013-01-31 21:28:00,
2013-01-31 15:33:00,65.9,24.7,29.60,SSW,203,5.4,6.7,21,0.00,,,0.00,WUHU216HW,2013-01-31 21:33:00,
2013-01-31 15:39:00,65.9,24.7,29.60,SSW,203,5.4,7.4,21,0.00,,,0.00,WUHU216HW,2013-01-31 21:39:00,
2013-01-31 15:44:00,66.1,24.9,29.60,SW,225,2.7,12.5,21,0.00,,,0.00,WUHU216HW,2013-01-31 21:44:00,
2013-01-31 15:49:00,66.2,24.9,29.60,South,180,3.8,12.5,21,0.00,,,0.00,WUHU216HW,2013-01-31 21:49:00,
2013-01-31 15:54:00,66.1,22.2,29.60,WSW,248,3.6,8.1,19,0.00,,,0.00,WUHU216HW,2013-01-31 21:54:00,
2013-01-31 15:59:00,65.7,24.5,29.60,SSW,203,2.9,6.3,21,0.00,,,0.00,WUHU216HW,2013-01-31 21:59:00,
2013-01-31 16:04:00,65.9,24.7,29.60,WSW,248,2.5,7.4,21,0.00,,,0.00,WUHU216HW,2013-01-31 22:04:00,
2013-01-31 16:09:00,66.4,26.1,29.60,SW,225,7.2,9.8,22,0.00,,,0.00,WUHU216HW,2013-01-31 22:09:00,
2013-01-31 16:14:00,66.6,25.3,29.61,SW,225,4.0,9.8,21,0.00,,,0.00,WUHU216HW,2013-01-31 22:14:00,
2013-01-31 16:19:00,66.1,25.8,29.60,West,270,5.4,6.9,22,0.00,,,0.00,WUHU216HW,2013-01-31 22:19:00,
2013-01-31 16:24:00,65.9,24.7,29.61,SW,225,5.8,11.2,21,0.00,,,0.00,WUHU216HW,2013-01-31 22:24:00,
2013-01-31 16:29:00,65.7,25.5,29.60,WSW,248,2.2,11.2,22,0.00,,,0.00,WUHU216HW,2013-01-31 22:29:00,
2013-01-31 16:34:00,65.7,25.5,29.60,ESE,113,2.0,5.4,22,0.00,,,0.00,WUHU216HW,2013-01-31 22:34:00,
2013-01-31 16:39:00,65.3,25.2,29.60,SSE,158,3.8,5.8,22,0.00,,,0.00,WUHU216HW,2013-01-31 22:39:00,
2013-01-31 16:44:00,65.2,25.1,29.61,SW,225,1.8,6.0,22,0.00,,,0.00,WUHU216HW,2013-01-31 22:44:00,
2013-01-31 16:49:00,64.8,25.7,29.60,WSW,248,2.5,6.0,23,0.00,,,0.00,WUHU216HW,2013-01-31 22:49:00,
2013-01-31 16:54:00,64.6,25.7,29.60,SW,225,4.0,5.4,23,0.00,,,0.00,WUHU216HW,2013-01-31 22:54:00,
2013-01-31 16:59:00,64.4,24.5,29.60,WSW,248,1.8,5.4,22,0.00,,,0.00,WUHU216HW,2013-01-31 22:59:00,
2013-01-31 17:04:00,64.1,25.2,29.60,WSW,248,2.0,5.4,23,0.00,,,0.00,WUHU216HW,2013-01-31 23:04:00,
2013-01-31 17:09:00,63.9,25.0,29.60,SW,225,1.8,6.7,23,0.00,,,0.00,WUHU216HW,2013-01-31 23:09:00,
2013-01-31 17:14:00,63.7,24.8,29.60,SW,225,3.4,6.7,23,0.00,,,0.00,WUHU216HW,2013-01-31 23:14:00,
2013-01-31 17:19:00,63.4,24.6,29.60,SW,225,1.8,4.0,23,0.00,,,0.00,WUHU216HW,2013-01-31 23:19:00,
2013-01-31 17:24:00,63.2,25.4,29.60,SW,225,1.1,4.0,24,0.00,,,0.00,WUHU216HW,2013-01-31 23:24:00,
2013-01-31 17:29:00,62.8,25.1,29.60,South,180,2.0,3.1,24,0.00,,,0.00,WUHU216HW,2013-01-31 23:29:00,
2013-01-31 17:34:00,62.6,24.9,29.60,SW,225,1.8,3.1,24,0.00,,,0.00,WUHU216HW,2013-01-31 23:34:00,
2013-01-31 17:39:00,62.3,24.7,29.60,South,180,1.1,2.9,24,0.00,,,0.00,WUHU216HW,2013-01-31 23:39:00,
2013-01-31 17:44:00,62.1,24.5,29.60,SW,225,1.1,2.9,24,0.00,,,0.00,WUHU216HW,2013-01-31 23:44:00,
2013-01-31 17:49:00,61.7,24.2,29.60,WSW,248,1.6,2.9,24,0.00,,,0.00,WUHU216HW,2013-01-31 23:49:00,
2013-01-31 17:55:00,61.4,23.9,29.60,SSE,158,1.6,2.0,24,0.00,,,0.00,WUHU216HW,2013-01-31 23:55:00,
2013-01-31 18:00:00,60.8,23.4,29.60,SSW,203,1.8,3.4,24,0.00,,,0.00,WUHU216HW,2013-02-01 00:00:00,
2013-01-31 18:05:00,60.5,23.1,29.60,SSW,203,3.1,3.4,24,0.00,,,0.00,WUHU216HW,2013-02-01 00:05:00,
2013-01-31 18:10:00,60.1,22.9,29.59,SSW,203,3.6,3.6,24,0.00,,,0.00,WUHU216HW,2013-02-01 00:10:00,
2013-01-31 18:15:00,59.9,22.7,29.59,SSW,203,3.1,3.8,24,0.00,,,0.00,WUHU216HW,2013-02-01 00:15:00,
2013-01-31 18:20:00,59.6,23.3,29.59,SSE,158,2.9,3.8,25,0.00,,,0.00,WUHU216HW,2013-02-01 00:20:00,
2013-01-31 18:25:00,59.4,23.1,29.60,SSW,203,2.5,4.0,25,0.00,,,0.00,WUHU216HW,2013-02-01 00:25:00,
2013-01-31 18:30:00,59.0,22.9,29.60,WSW,248,1.8,4.0,25,0.00,,,0.00,WUHU216HW,2013-02-01 00:30:00,
2013-01-31 18:35:00,58.7,22.6,29.61,South,180,2.5,3.1,25,0.00,,,0.00,WUHU216HW,2013-02-01 00:35:00,
2013-01-31 18:40:00,58.3,22.2,29.61,SSE,158,0.4,3.1,25,0.00,,,0.00,WUHU216HW,2013-02-01 00:40:00,
2013-01-31 18:45:00,58.0,22.0,29.62,SSW,203,0.0,2.5,25,0.00,,,0.00,WUHU216HW,2013-02-01 00:45:00,
2013-01-31 18:50:00,57.6,22.6,29.62,SSW,203,2.0,2.7,26,0.00,,,0.00,WUHU216HW,2013-02-01 00:50:00,
2013-01-31 18:55:00,57.4,22.4,29.63,WSW,248,1.8,2.7,26,0.00,,,0.00,WUHU216HW,2013-02-01 00:55:00,
2013-01-31 19:00:00,57.2,23.2,29.63,SSW,203,1.1,2.5,27,0.00,,,0.00,WUHU216HW,2013-02-01 01:00:00,
2013-01-31 19:05:00,56.9,23.0,29.63,South,180,1.8,1.8,27,0.00,,,0.00,WUHU216HW,2013-02-01 01:05:00,
2013-01-31 19:10:00,56.7,22.8,29.63,South,180,1.6,2.5,27,0.00,,,0.00,WUHU216HW,2013-02-01 01:10:00,
2013-01-31 19:15:00,56.5,22.6,29.63,SSW,203,0.0,2.5,27,0.00,,,0.00,WUHU216HW,2013-02-01 01:15:00,
2013-01-31 19:20:00,56.2,23.2,29.63,NE,45,0.9,1.3,28,0.00,,,0.00,WUHU216HW,2013-02-01 01:20:00,
2013-01-31 19:25:00,55.4,23.6,29.64,ESE,113,0.7,0.9,29,0.00,,,0.00,WUHU216HW,2013-02-01 01:25:00,
2013-01-31 19:30:00,54.9,23.1,29.64,East,90,1.1,1.1,29,0.00,,,0.00,WUHU216HW,2013-02-01 01:30:00,
2013-01-31 19:35:00,54.5,23.8,29.65,ENE,68,0.4,1.1,30,0.00,,,0.00,WUHU216HW,2013-02-01 01:35:00,
2013-01-31 19:41:00,54.0,24.0,29.66,NNE,23,0.0,1.1,31,0.00,,,0.00,WUHU216HW,2013-02-01 01:41:00,
2013-01-31 19:46:00,53.6,24.4,29.66,ENE,68,0.0,0.9,32,0.00,,,0.00,WUHU216HW,2013-02-01 01:46:00,
2013-01-31 19:51:00,53.3,24.8,29.66,East,90,1.3,1.6,33,0.00,,,0.00,WUHU216HW,2013-02-01 01:51:00,
2013-01-31 19:56:00,52.9,25.1,29.65,East,90,2.2,2.5,34,0.00,,,0.00,WUHU216HW,2013-02-01 01:56:00,
2013-01-31 20:01:00,52.7,24.9,29.65,ESE,113,2.2,2.5,34,0.00,,,0.00,WUHU216HW,2013-02-01 02:01:00,
2013-01-31 20:06:00,52.2,24.5,29.65,SE,135,1.8,2.5,34,0.00,,,0.00,WUHU216HW,2013-02-01 02:06:00,
2013-01-31 20:11:00,51.8,25.6,29.66,ESE,113,0.9,2.0,36,0.00,,,0.00,WUHU216HW,2013-02-01 02:11:00,
2013-01-31 20:16:00,51.5,25.2,29.66,East,90,1.1,1.8,36,0.00,,,0.00,WUHU216HW,2013-02-01 02:16:00,
2013-01-31 20:21:00,51.3,25.8,29.67,SE,135,2.9,2.9,37,0.00,,,0.00,WUHU216HW,2013-02-01 02:21:00,
2013-01-31 20:26:00,50.9,26.1,29.66,SE,135,2.2,3.1,38,0.00,,,0.00,WUHU216HW,2013-02-01 02:26:00,
2013-01-31 20:31:00,50.8,25.2,29.67,ESE,113,0.4,3.1,37,0.00,,,0.00,WUHU216HW,2013-02-01 02:31:00,
2013-01-31 20:36:00,50.8,25.2,29.67,NE,45,1.3,2.5,37,0.00,,,0.00,WUHU216HW,2013-02-01 02:36:00,
2013-01-31 20:41:00,50.8,25.2,29.67,ENE,68,1.1,1.3,37,0.00,,,0.00,WUHU216HW,2013-02-01 02:41:00,
2013-01-31 20:46:00,50.6,25.1,29.67,ENE,68,1.1,1.8,37,0.00,,,0.00,WUHU216HW,2013-02-01 02:46:00,
2013-01-31 20:51:00,50.4,24.9,29.67,East,90,0.0,1.8,37,0.00,,,0.00,WUHU216HW,2013-02-01 02:51:00,
2013-01-31 20:56:00,50.0,24.6,29.68,East,90,0.9,1.6,37,0.00,,,0.00,WUHU216HW,2013-02-01 02:56:00,
2013-01-31 21:01:00,49.9,25.1,29.68,NE,45,0.4,1.6,38,0.00,,,0.00,WUHU216HW,2013-02-01 03:01:00,
2013-01-31 21:06:00,49.5,24.9,29.68,East,90,0.4,0.7,38,0.00,,,0.00,WUHU216HW,2013-02-01 03:06:00,
2013-01-31 21:11:00,49.1,24.5,29.67,ESE,113,0.7,0.9,38,0.00,,,0.00,WUHU216HW,2013-02-01 03:11:00,
2013-01-31 21:16:00,48.8,24.1,29.68,ENE,68,0.7,1.6,38,0.00,,,0.00,WUHU216HW,2013-02-01 03:16:00,
2013-01-31 21:21:00,48.6,24.7,29.68,NNE,23,0.0,1.6,39,0.00,,,0.00,WUHU216HW,2013-02-01 03:21:00,
2013-01-31 21:26:00,48.4,25.2,29.68,ESE,113,0.4,0.7,40,0.00,,,0.00,WUHU216HW,2013-02-01 03:26:00,
2013-01-31 21:31:00,48.1,25.4,29.68,NE,45,1.3,1.3,41,0.00,,,0.00,WUHU216HW,2013-02-01 03:31:00,
2013-01-31 21:36:00,47.5,25.5,29.67,SE,135,1.6,2.0,42,0.00,,,0.00,WUHU216HW,2013-02-01 03:36:00,
2013-01-31 21:41:00,47.2,25.1,29.67,ESE,113,1.8,2.0,42,0.00,,,0.00,WUHU216HW,2013-02-01 03:41:00,
2013-01-31 21:46:00,47.0,25.5,29.68,ENE,68,1.6,2.2,43,0.00,,,0.00,WUHU216HW,2013-02-01 03:46:00,
2013-01-31 21:51:00,46.6,25.8,29.68,ESE,113,1.3,2.5,44,0.00,,,0.00,WUHU216HW,2013-02-01 03:51:00,
2013-01-31 21:56:00,46.4,25.0,29.68,ESE,113,1.8,2.5,43,0.00,,,0.00,WUHU216HW,2013-02-01 03:56:00,
2013-01-31 22:01:00,46.4,25.6,29.68,SE,135,1.8,2.5,44,0.00,,,0.00,WUHU216HW,2013-02-01 04:01:00,
2013-01-31 22:06:00,46.3,25.4,29.68,SE,135,1.1,2.9,44,0.00,,,0.00,WUHU216HW,2013-02-01 04:06:00,
2013-01-31 22:11:00,46.3,25.4,29.68,SE,135,2.5,2.9,44,0.00,,,0.00,WUHU216HW,2013-02-01 04:11:00,
2013-01-31 22:17:00,46.3,25.4,29.68,SE,135,1.8,2.9,44,0.00,,,0.00,WUHU216HW,2013-02-01 04:17:00,
2013-01-31 22:22:00,46.6,25.2,29.69,SSE,158,1.1,10.1,43,0.00,,,0.00,WUHU216HW,2013-02-01 04:22:00,
2013-01-31 22:27:00,47.7,25.7,29.69,SSW,203,3.8,10.1,42,0.00,,,0.00,WUHU216HW,2013-02-01 04:27:00,
2013-01-31 22:32:00,48.4,25.8,29.70,SW,225,4.3,5.6,41,0.00,,,0.00,WUHU216HW,2013-02-01 04:32:00,
2013-01-31 22:37:00,48.6,25.9,29.69,SW,225,5.4,5.6,41,0.00,,,0.00,WUHU216HW,2013-02-01 04:37:00,
2013-01-31 22:42:00,48.8,26.0,29.70,South,180,4.7,5.4,41,0.00,,,0.00,WUHU216HW,2013-02-01 04:42:00,
2013-01-31 22:47:00,49.1,26.4,29.69,SW,225,0.4,5.8,41,0.00,,,0.00,WUHU216HW,2013-02-01 04:47:00,
2013-01-31 22:52:00,49.3,26.6,29.70,SSW,203,0.2,5.8,41,0.00,,,0.00,WUHU216HW,2013-02-01 04:52:00,
2013-01-31 22:57:00,49.0,26.2,29.70,South,180,0.2,2.9,41,0.00,,,0.00,WUHU216HW,2013-02-01 04:57:00,
2013-01-31 23:00:00,48.4,26.3,29.70,WSW,248,0.4,2.0,42,0.00,,,0.00,WUHU216HW,2013-02-01 05:00:00,
2013-01-31 23:02:00,47.9,25.7,29.70,WSW,248,0.0,1.8,42,0.00,,,0.00,WUHU216HW,2013-02-01 05:02:00,
2013-01-31 23:03:00,47.7,26.2,29.70,SSW,203,1.1,1.8,43,0.00,,,0.00,WUHU216HW,2013-02-01 05:03:00,
2013-01-31 23:08:00,47.2,25.7,29.70,SSE,158,0.2,1.1,43,0.00,,,0.00,WUHU216HW,2013-02-01 05:08:00,
2013-01-31 23:13:00,47.0,26.0,29.69,SSW,203,0.0,1.1,44,0.00,,,0.00,WUHU216HW,2013-02-01 05:13:00,
2013-01-31 23:18:00,47.0,26.0,29.69,NNE,23,0.0,1.1,44,0.00,,,0.00,WUHU216HW,2013-02-01 05:18:00,
2013-01-31 23:23:00,47.0,26.6,29.69,NNE,23,0.4,0.4,45,0.00,,,0.00,WUHU216HW,2013-02-01 05:23:00,
2013-01-31 23:28:00,46.8,26.5,29.69,North,0,0.2,0.4,45,0.00,,,0.00,WUHU216HW,2013-02-01 05:28:00,
2013-01-31 23:33:00,46.8,26.5,29.69,North,0,0.0,0.7,45,0.00,,,0.00,WUHU216HW,2013-02-01 05:33:00,
2013-01-31 23:38:00,46.8,26.5,29.69,SSW,203,0.0,0.7,45,0.00,,,0.00,WUHU216HW,2013-02-01 05:38:00,
2013-01-31 23:43:00,46.8,26.5,29.69,SSW,203,0.0,0.0,45,0.00,,,0.00,WUHU216HW,2013-02-01 05:43:00,
2013-01-31 23:48:00,46.8,27.0,29.69,SE,135,0.0,0.0,46,0.00,,,0.00,WUHU216HW,2013-02-01 05:48:00,
2013-01-31 23:53:00,46.8,27.0,29.69,South,180,0.0,0.0,46,0.00,,,0.00,WUHU216HW,2013-02-01 05:53:00,
2013-01-31 23:58:00,46.8,27.0,29.69,SSE,158,0.0,0.0,46,0.00,,,0.00,WUHU216HW,2013-02-01 05:58:00,